Location: ???? ???? ?????
(31.2680°N, 31.7283°E)
Time: 04:26:55
(UTC+00:00)

Cosmos 2278 Rocket - Pass Details

Date: 13 July 2020
Orbit: 841 x 845 km, 71.0° (Epoch: 11 August)

Event Time Altitude Azimuth Distance (km) Brightness Sun altitude
Rises 19:10:24 0° 340° (NNW) 3,405 6.5 -23.4°
Reaches altitude 10° 19:12:51 10° 341° (NNW) 2,466 5.5 -23.8°
Maximum altitude 19:18:32 88° 69° (ENE) 847 2.1 -24.6°
Enters shadow 19:19:29 64° 157° (SSE) 931 2.1 -24.7°
